[[{"header":{"parameterUnit":"m.s-1","parameterCategory":1,"la1":30.2991,"la2":30.254,"lo1":-89.0895,"lo2":-89.0444,"dy":0.0017,"dx":0.0017,"nx":28,"ny":28,"refTime":"2025-06-14T21:00:00:Z","depth":0,"parameterNumber":2,"parameterNumberName":"U-component_of_WINDS"},"data":[0,0,0,0,0,0,0,0,0,0,0,0,0,0,0,0,0,0,0,0,0,0,0,0,0,0,0,0,0,0,0,0,0,0,0,0,0,0,0,0,0,0,0,0,0,0,0,0,0,0,0,0,0,0,0,0,0,0,3.104,3.1042,0,3.1195,3.1197,3.1199,3.1199,3.1197,3.1195,3.1193,3.1354,3.136,3.1366,0,0,0,0,0,0,0,0,0,0,0,0,0,3.0744,3.075,3.104,3.1042,3.1044,3.1195,3.1197,3.1199,3.1199,3.1196,3.1194,3.1192,3.1352,3.1359,3.1367,0,0,0,0,0,0,0,0,0,0,0,0,0,3.0883,3.0751,3.1039,3.1062,3.1065,3.1195,3.1197,3.12,3.1199,3.1196,3.1193,3.1191,3.1349,3.1358,3.1368,3.1486,0,0,3.1396,3.14,0,0,0,0,0,0,0,0,3.0876,3.0894,3.1056,3.106,3.1065,3.1174,3.1152,3.1296,3.12,3.1149,3.1193,3.1189,3.1297,3.131,3.1346,3.1493,3.15,3.1397,3.1402,3.1406,3.1409,0,0,0,0,0,0,0,3.0866,3.0888,3.1101,3.1059,3.1064,3.1064,3.1081,3.1179,3.1238,3.1153,3.1153,3.1171,3.1298,3.1337,3.135,3.1503,3.1396,3.1405,3.141,3.1414,3.1754,3.1757,0,0,0,0,0,0,3.0851,3.088,3.1096,3.1106,3.0961,3.1072,3.1091,3.1142,3.1237,3.1248,3.1174,3.1171,3.1323,3.1339,3.1356,3.1499,3.1406,3.1415,3.142,3.175,3.1754,3.1758,0,0,0,0,0,0,3.0845,3.0871,3.109,3.0993,3.1021,3.108,3.1139,3.1147,3.1186,3.1253,3.1263,3.1203,3.1321,3.1342,3.1453,3.1504,3.1419,3.1428,3.1746,3.1751,3.1756,3.1787,0,0,0,0,0,0,3.0837,3.0868,3.0914,3.0994,3.1026,3.1184,3.1142,3.1152,3.1201,3.1199,3.1282,3.1293,3.132,3.1439,3.1462,3.1516,3.1435,3.1742,3.1748,3.1755,3.1781,3.1792,3.1802,0,0,0,0,0,3.0826,3.0917,3.0916,3.0942,3.1084,3.1187,3.1206,3.1234,3.1205,3.1251,3.1294,3.1291,3.1495,3.145,3.1476,3.1533,3.1738,3.1746,3.1754,3.1777,3.179,3.1802,0,0,0,0,0,0,3.0842,3.0928,3.0928,3.1047,3.111,3.1187,3.1246,3.1248,3.1321,3.1315,3.1348,3.1367,3.1477,3.1517,3.1465,3.1652,3.1613,3.1627,3.1622,3.1635,3.1645,3.1633,3.1443,0,0,0,0,0,3.0859,3.0935,3.1007,3.1105,3.1137,3.1186,3.1232,3.1249,3.1315,3.1342,3.1393,3.1459,3.1538,3.1589,3.1666,3.1788,3.1805,3.184,3.185,3.1858,3.1869,3.1935,3.1951,3.1784,3.1783,3.1783,0,0,3.0895,3.0952,3.0998,3.111,3.116,3.1239,3.1208,3.1293,3.1352,3.1355,3.1462,3.1502,3.1577,3.1694,3.1748,3.173,3.1919,3.1868,3.1874,3.188,3.1945,3.196,3.1974,3.1789,3.1788,3.1787,0,0,3.1001,3.1052,3.1139,3.119,3.1267,3.1299,3.132,3.1398,3.1424,3.1531,3.1535,3.1606,3.1742,3.1795,3.184,3.1966,3.1965,3.199,3.2042,3.2107,3.212,3.2132,3.2175,3.2191,3.2001,3.2001,3.2001,0,3.1037,3.1155,3.1184,3.1268,3.1317,3.1323,3.1411,3.146,3.1558,3.1592,3.1571,3.174,3.1792,3.192,3.195,3.1987,3.2012,3.198,3.2116,3.2128,3.2139,3.2181,3.2197,3.2003,3.2003,3.2003,3.2003,0,3.1194,3.1276,3.1337,3.143,3.1486,3.1572,3.1614,3.1668,3.168,3.1714,3.1823,3.1885,3.1973,3.2006,3.2019,3.2136,3.2122,3.2109,3.207,3.2157,3.2197,3.2213,3.2007,3.2006,3.2005,3.2005,0,0,3.1313,3.1421,3.1443,3.1484,3.157,3.1634,3.1721,3.1806,3.1851,3.1919,3.1991,3.2106,3.2093,3.2144,3.2163,3.222,3.2314,3.2199,3.2201,3.2217,3.2446,3.2454,3.2472,3.2315,3.2318,3.2321,3.2439,0,3.1426,3.1579,3.1607,3.174,3.1816,3.1823,3.1899,3.1959,3.1994,3.2064,3.2103,3.2182,3.2161,3.2191,3.2248,3.2291,3.236,3.2283,3.2382,3.2385,3.2361,3.2493,3.2503,3.2611,3.2455,3.2457,3.2459,0,3.1579,3.1649,3.1789,3.1863,3.1896,3.1963,3.2044,3.2111,3.218,3.2201,3.2258,3.227,3.2361,3.2319,3.2444,3.239,3.2433,3.2461,3.2465,3.2474,3.2426,3.2504,3.2646,3.2662,3.2484,3.2482,3.2481,0,3.1649,3.1779,3.1879,3.1915,3.2005,3.2052,3.2092,3.2158,3.2207,3.2278,3.2311,3.2392,3.2436,3.2498,3.2533,3.2499,3.2654,3.2616,3.2674,3.2673,3.2704,3.2701,3.2854,3.2735,3.2735,3.2735,3.2734,0,3.1771,3.1856,3.1911,3.1973,3.2068,3.2101,3.2195,3.2234,3.2293,3.2362,3.2375,3.244,3.2482,3.2554,3.2581,3.2679,3.27,3.2719,3.2725,3.2717,3.2714,3.2744,3.2736,3.2739,3.2738,3.2737,3.2737,0,3.1864,3.1905,3.2015,3.2091,3.2112,3.2179,3.2244,3.2304,3.2339,3.2427,3.2449,3.2505,3.2589,3.263,3.2735,3.2754,3.2864,3.2867,3.284,3.2842,3.2897,3.289,3.3072,3.3097,3.2964,3.2965,3.2966,0,3.1939,3.2004,3.2087,3.2134,3.2174,3.225,3.2301,3.2336,3.2388,3.2471,3.2521,3.2606,3.2675,3.281,3.286,3.294,3.2943,3.3002,3.2955,3.2945,3.2942,3.2937,3.2943,3.3009,3.301,3.3011,3.3012,0,3.2066,3.2082,3.2154,3.2233,3.2293,3.2357,3.242,3.2458,3.2503,3.2561,3.2647,3.2701,3.2808,3.2891,3.2975,3.3017,3.3022,3.3027,3.3044,3.3035,3.3016,3.3025,3.2861,3.3022,3.3021,3.302,3.3019,3.3019,3.215,3.2208,3.2275,3.2355,3.2406,3.2464,3.2524,3.2566,3.2638,3.2727,3.2744,3.2835,3.2903,3.3016,3.306,3.3132,3.3119,3.3145,3.3151,3.3156,3.3157,3.3006,3.3148,3.3148,3.3147,3.3147,3.3147,0,3.2276,3.232,3.2392,3.248,3.2542,3.2542,3.2612,3.2664,3.2743,3.2806,3.2873,3.2972,3.3053,3.311,3.3192,3.3239,3.3243,3.3259,3.3255,3.3264,3.3166,3.3141,3.3254,3.3254,3.3254,3.3254,3.3254,3.3254,3.2348,3.2446,3.2471,3.2594,3.2637,3.2725,3.2765,3.2819,3.2869,3.2978,3.3045,3.3081,3.3141,3.3228,3.3303,3.3318,3.3346,3.3362,3.3376,3.3283,3.3271,3.326,3.3238,3.3369,3.3369,3.3469,3.347,3.347]},{"header":{"parameterUnit":"m.s-1","parameterCategory":1,"la1":30.2991,"la2":30.254,"lo1":-89.0895,"lo2":-89.0444,"dy":0.0017,"dx":0.0017,"nx":28,"ny":28,"refTime":"2025-06-14T21:00:00:Z","depth":0,"parameterNumber":3,"parameterNumberName":"V-component_of_WINDS"},"data":[0,0,0,0,0,0,0,0,0,0,0,0,0,0,0,0,0,0,0,0,0,0,0,0,0,0,0,0,0,0,0,0,0,0,0,0,0,0,0,0,0,0,0,0,0,0,0,0,0,0,0,0,0,0,0,0,0,0,3.4341,3.4343,0,3.4468,3.4469,3.447,3.446,3.4458,3.4456,3.4454,3.4583,3.4588,3.4593,0,0,0,0,0,0,0,0,0,0,0,0,0,3.4089,3.4094,3.4341,3.4343,3.4344,3.4467,3.4469,3.4471,3.446,3.4458,3.4456,3.4453,3.4582,3.4588,3.4594,0,0,0,0,0,0,0,0,0,0,0,0,0,3.4205,3.4096,3.4341,3.4354,3.4356,3.4467,3.4469,3.4471,3.4461,3.4458,3.4455,3.4452,3.4579,3.4587,3.4595,3.4701,0,0,3.4619,3.4622,0,0,0,0,0,0,0,0,3.4199,3.4215,3.435,3.4353,3.4356,3.4445,3.4428,3.4548,3.4461,3.4421,3.4454,3.4451,3.454,3.455,3.4581,3.4707,3.4712,3.4619,3.4624,3.4628,3.463,0,0,0,0,0,0,0,3.4191,3.4209,3.4391,3.4352,3.4356,3.4353,3.4366,3.445,3.4495,3.4424,3.4424,3.4439,3.4541,3.4573,3.4583,3.4714,3.4619,3.4626,3.4631,3.4634,3.4933,3.4936,0,0,0,0,0,0,3.418,3.4203,3.4387,3.4395,3.4269,3.436,3.4375,3.4419,3.4494,3.4503,3.4441,3.4438,3.4561,3.4574,3.4588,3.4717,3.4628,3.4635,3.4639,3.493,3.4934,3.4937,0,0,0,0,0,0,3.4175,3.4196,3.4382,3.4299,3.4322,3.4367,3.4417,3.4423,3.4456,3.4507,3.4515,3.4466,3.4559,3.4577,3.4673,3.4721,3.4638,3.4646,3.4926,3.4931,3.4936,3.4975,0,0,0,0,0,0,3.4167,3.4195,3.4236,3.43,3.4327,3.4465,3.442,3.4428,3.4469,3.4466,3.4532,3.4541,3.4558,3.4661,3.4681,3.473,3.4652,3.4922,3.4928,3.4934,3.497,3.4981,3.499,0,0,0,0,0,3.4158,3.4242,3.4238,3.426,3.4379,3.4468,3.4483,3.4502,3.4473,3.4515,3.4547,3.4538,3.4712,3.4671,3.4693,3.4746,3.4919,3.4926,3.4934,3.4965,3.4979,3.499,0,0,0,0,0,0,3.4183,3.4251,3.4247,3.4354,3.4405,3.4466,3.4519,3.4516,3.4577,3.4571,3.4592,3.4607,3.4703,3.4734,3.4687,3.4852,3.4812,3.4824,3.4828,3.4842,3.4852,3.4842,3.4658,0,0,0,0,0,3.42,3.4267,3.4323,3.4412,3.4438,3.4474,3.4513,3.4523,3.4578,3.4599,3.4639,3.4692,3.4758,3.4801,3.4865,3.4974,3.4988,3.5021,3.5031,3.5039,3.505,3.5109,3.5124,3.4961,3.4961,3.4961,0,0,3.4238,3.4283,3.4324,3.4418,3.4459,3.4527,3.4492,3.4566,3.4617,3.461,3.4703,3.4734,3.4794,3.4897,3.4944,3.4925,3.5097,3.5049,3.5055,3.5061,3.5118,3.5133,3.5147,3.4966,3.4965,3.4965,0,0,3.4341,3.4382,3.446,3.4502,3.4564,3.4588,3.4607,3.4668,3.4688,3.4782,3.4778,3.4838,3.4953,3.4995,3.5032,3.515,3.5144,3.517,3.5224,3.5282,3.5294,3.5306,3.5348,3.5363,3.518,3.5181,3.5181,0,3.4379,3.4483,3.4501,3.4576,3.4617,3.4613,3.4692,3.4732,3.4812,3.484,3.4818,3.4961,3.5001,3.5114,3.5142,3.5172,3.5194,3.5163,3.5291,3.5303,3.5314,3.5354,3.537,3.5183,3.5183,3.5183,3.5182,0,3.4527,3.4598,3.4654,3.4732,3.4779,3.4855,3.4885,3.493,3.4936,3.4961,3.5056,3.5104,3.5177,3.5205,3.5211,3.5318,3.5304,3.5286,3.5247,3.5332,3.537,3.5386,3.5187,3.5186,3.5185,3.5185,0,0,3.465,3.4736,3.4756,3.4791,3.4859,3.4914,3.499,3.5062,3.5101,3.5156,3.522,3.5316,3.53,3.5341,3.5352,3.5403,3.5493,3.5379,3.538,3.5398,3.5613,3.5626,3.5644,3.5489,3.5492,3.5494,3.5608,0,3.476,3.4895,3.4913,3.5032,3.5098,3.5096,3.5162,3.521,3.5236,3.5296,3.5323,3.5391,3.5365,3.539,3.544,3.5471,3.5536,3.5463,3.5548,3.5551,3.5534,3.5664,3.5678,3.5784,3.5623,3.5626,3.5627,0,3.4906,3.4965,3.5092,3.515,3.5179,3.5238,3.5305,3.5362,3.5417,3.5432,3.5478,3.5482,3.556,3.5517,3.5624,3.5574,3.561,3.563,3.5635,3.5644,3.5595,3.5677,3.5818,3.5833,3.5651,3.5649,3.5648,0,3.4983,3.5094,3.5184,3.5214,3.5285,3.5326,3.5357,3.5409,3.5451,3.5509,3.5537,3.5603,3.564,3.5691,3.5713,3.5679,3.5819,3.5777,3.5833,3.5833,3.5863,3.5861,3.6012,3.5886,3.5886,3.5885,3.5885,0,3.5105,3.5182,3.5219,3.5275,3.5361,3.538,3.5465,3.5495,3.5541,3.5601,3.5603,3.5659,3.5685,3.5745,3.5763,3.5849,3.5865,3.5879,3.5883,3.588,3.5878,3.5904,3.5897,3.589,3.5889,3.5888,3.5887,0,3.5205,3.5234,3.5331,3.539,3.5406,3.5467,3.5517,3.557,3.5595,3.5672,3.5691,3.5729,3.5801,3.5827,3.5914,3.5926,3.6025,3.6023,3.6007,3.6008,3.6063,3.6057,3.6236,3.626,3.6117,3.6119,3.612,0,3.5281,3.534,3.5405,3.5446,3.5479,3.5544,3.5587,3.5608,3.5652,3.5719,3.5764,3.5835,3.5893,3.6006,3.6042,3.6108,3.6107,3.6165,3.6117,3.6112,3.6108,3.6105,3.6111,3.6174,3.6176,3.6177,3.6178,0,3.5412,3.5423,3.5484,3.5551,3.5602,3.5655,3.5707,3.574,3.5768,3.5818,3.5891,3.5936,3.6024,3.6094,3.6162,3.6194,3.6191,3.6193,3.6209,3.6206,3.6195,3.6202,3.6032,3.6189,3.6188,3.6187,3.6186,3.6186,3.5503,3.5555,3.5609,3.5677,3.5718,3.5766,3.5819,3.585,3.5911,3.5985,3.5994,3.6072,3.6124,3.6215,3.625,3.6311,3.6295,3.6319,3.6325,3.6331,3.6335,3.6184,3.6323,3.6323,3.6323,3.6322,3.6322,0,3.5634,3.5668,3.5731,3.5803,3.5857,3.5849,3.5906,3.5951,3.602,3.6069,3.6126,3.6209,3.6277,3.6318,3.6386,3.6427,3.6427,3.6444,3.6441,3.6449,3.6345,3.6324,3.6442,3.6442,3.6442,3.6442,3.6442,3.6442,3.5709,3.5797,3.5814,3.5922,3.5956,3.6033,3.6066,3.611,3.6149,3.6243,3.6299,3.6325,3.6371,3.6442,3.6504,3.6514,3.6539,3.6557,3.6566,3.6468,3.6456,3.6444,3.6424,3.6562,3.6562,3.6665,3.6665,3.6666]}]]